Time,TemperatureF,DewpointF,PressureIn,WindDirection,WindDirectionDegrees,WindSpeedMPH,WindSpeedGustMPH,Humidity,HourlyPrecipIn,Conditions,Clouds,dailyrainin,SoftwareType,DateUTC
2013-01-08 00:00:00,29.3,27.3,30.42,South,179,0.0,0.0,92,0.00,,,0.00,Wunderground v.1.15,2013-01-08 05:00:00,
2013-01-08 00:05:00,29.2,27.2,30.42,South,179,0.0,0.0,92,0.00,,,0.00,Wunderground v.1.15,2013-01-08 05:05:00,
2013-01-08 00:10:00,29.1,27.1,30.42,South,179,0.0,0.0,92,0.00,,,0.00,Wunderground v.1.15,2013-01-08 05:10:00,
2013-01-08 00:15:00,29.0,27.0,30.42,South,179,0.0,0.0,92,0.00,,,0.00,Wunderground v.1.15,2013-01-08 05:15:00,
2013-01-08 00:20:00,29.0,27.2,30.42,South,179,0.0,0.0,93,0.00,,,0.00,Wunderground v.1.15,2013-01-08 05:20:00,
2013-01-08 00:25:00,28.9,27.1,30.42,South,179,0.0,0.0,93,0.00,,,0.00,Wunderground v.1.15,2013-01-08 05:25:00,
2013-01-08 00:35:00,28.9,27.1,30.43,South,179,0.0,0.0,93,0.00,,,0.00,Wunderground v.1.15,2013-01-08 05:35:00,
2013-01-08 00:40:00,28.9,27.1,30.43,South,179,0.0,0.0,93,0.00,,,0.00,Wunderground v.1.15,2013-01-08 05:40:00,
2013-01-08 00:50:00,28.8,27.0,30.42,South,179,0.0,0.0,93,0.00,,,0.00,Wunderground v.1.15,2013-01-08 05:50:00,
2013-01-08 00:55:00,28.8,27.0,30.42,South,179,0.0,0.0,93,0.00,,,0.00,Wunderground v.1.15,2013-01-08 05:55:00,
2013-01-08 01:00:00,28.7,26.9,30.42,South,179,0.0,0.0,93,0.00,,,0.00,Wunderground v.1.15,2013-01-08 06:00:00,
2013-01-08 01:10:00,28.5,27.0,30.43,South,179,0.0,0.0,94,0.00,,,0.00,Wunderground v.1.15,2013-01-08 06:10:00,
2013-01-08 01:15:00,28.5,27.0,30.43,South,179,0.0,0.0,94,0.00,,,0.00,Wunderground v.1.15,2013-01-08 06:15:00,
2013-01-08 01:25:00,28.5,27.0,30.43,South,179,0.0,0.0,94,0.00,,,0.00,Wunderground v.1.15,2013-01-08 06:25:00,
2013-01-08 01:30:00,28.5,27.0,30.42,South,179,0.0,0.0,94,0.00,,,0.00,Wunderground v.1.15,2013-01-08 06:30:00,
2013-01-08 01:35:00,28.4,26.9,30.42,South,179,0.0,0.0,94,0.00,,,0.00,Wunderground v.1.15,2013-01-08 06:35:00,
2013-01-08 01:40:00,28.3,26.8,30.42,South,179,0.0,0.0,94,0.00,,,0.00,Wunderground v.1.15,2013-01-08 06:40:00,
2013-01-08 01:50:00,28.1,26.6,30.41,South,179,0.0,0.0,94,0.00,,,0.00,Wunderground v.1.15,2013-01-08 06:50:00,
2013-01-08 01:55:00,28.0,26.5,30.41,South,179,0.0,0.0,94,0.00,,,0.00,Wunderground v.1.15,2013-01-08 06:55:00,
2013-01-08 02:00:00,27.9,26.4,30.42,South,179,0.0,0.0,94,0.00,,,0.00,Wunderground v.1.15,2013-01-08 07:00:00,
2013-01-08 02:05:00,27.9,26.4,30.41,South,179,0.0,0.0,94,0.00,,,0.00,Wunderground v.1.15,2013-01-08 07:05:00,
2013-01-08 02:15:00,27.9,26.7,30.42,South,179,0.0,0.0,95,0.00,,,0.00,Wunderground v.1.15,2013-01-08 07:15:00,
2013-01-08 02:20:00,27.8,26.3,30.42,South,179,0.0,0.0,94,0.00,,,0.00,Wunderground v.1.15,2013-01-08 07:20:00,
2013-01-08 02:30:00,27.7,26.5,30.41,South,179,0.0,0.0,95,0.00,,,0.00,Wunderground v.1.15,2013-01-08 07:30:00,
2013-01-08 02:35:00,27.8,26.6,30.41,South,179,0.0,0.0,95,0.00,,,0.00,Wunderground v.1.15,2013-01-08 07:35:00,
2013-01-08 02:40:00,27.8,26.6,30.41,South,179,0.0,0.0,95,0.00,,,0.00,Wunderground v.1.15,2013-01-08 07:40:00,
2013-01-08 02:45:00,27.8,26.6,30.41,South,179,0.0,0.0,95,0.00,,,0.00,Wunderground v.1.15,2013-01-08 07:45:00,
2013-01-08 02:55:00,27.6,26.4,30.41,South,179,0.0,0.0,95,0.00,,,0.00,Wunderground v.1.15,2013-01-08 07:55:00,
2013-01-08 03:00:00,27.5,26.3,30.41,South,179,0.0,0.0,95,0.00,,,0.00,Wunderground v.1.15,2013-01-08 08:00:00,
2013-01-08 03:10:00,27.6,26.4,30.41,South,179,0.0,0.0,95,0.00,,,0.00,Wunderground v.1.15,2013-01-08 08:10:00,
2013-01-08 03:15:00,27.5,26.3,30.41,South,179,0.0,0.0,95,0.00,,,0.00,Wunderground v.1.15,2013-01-08 08:15:00,
2013-01-08 03:20:00,27.5,26.3,30.41,South,179,0.0,0.0,95,0.00,,,0.00,Wunderground v.1.15,2013-01-08 08:20:00,
2013-01-08 03:25:00,27.4,26.2,30.40,South,179,0.0,0.0,95,0.00,,,0.00,Wunderground v.1.15,2013-01-08 08:25:00,
2013-01-08 03:35:00,27.2,26.0,30.41,South,179,0.0,0.0,95,0.00,,,0.00,Wunderground v.1.15,2013-01-08 08:35:00,
2013-01-08 03:40:00,27.2,26.0,30.41,South,179,0.0,0.0,95,0.00,,,0.00,Wunderground v.1.15,2013-01-08 08:40:00,
2013-01-08 03:45:00,27.2,26.0,30.41,South,179,0.0,0.0,95,0.00,,,0.00,Wunderground v.1.15,2013-01-08 08:45:00,
2013-01-08 03:55:00,27.2,26.0,30.41,South,179,0.0,0.0,95,0.00,,,0.00,Wunderground v.1.15,2013-01-08 08:55:00,
2013-01-08 04:00:00,27.2,26.0,30.41,South,179,0.0,0.0,95,0.00,,,0.00,Wunderground v.1.15,2013-01-08 09:00:00,
2013-01-08 04:05:00,27.2,26.0,30.41,South,179,0.0,0.0,95,0.00,,,0.00,Wunderground v.1.15,2013-01-08 09:05:00,
2013-01-08 04:10:00,27.1,25.9,30.41,South,179,0.0,0.0,95,0.00,,,0.00,Wunderground v.1.15,2013-01-08 09:10:00,
2013-01-08 04:20:00,27.2,26.0,30.41,South,179,0.0,0.0,95,0.00,,,0.00,Wunderground v.1.15,2013-01-08 09:20:00,
2013-01-08 04:25:00,27.2,26.0,30.41,South,179,0.0,0.0,95,0.00,,,0.00,Wunderground v.1.15,2013-01-08 09:25:00,
2013-01-08 04:30:00,27.3,26.1,30.41,South,179,0.0,0.0,95,0.00,,,0.00,Wunderground v.1.15,2013-01-08 09:30:00,
2013-01-08 04:40:00,27.8,26.8,30.41,South,179,0.0,0.0,96,0.00,,,0.00,Wunderground v.1.15,2013-01-08 09:40:00,
2013-01-08 04:45:00,28.0,27.0,30.42,South,179,0.0,0.0,96,0.00,,,0.00,Wunderground v.1.15,2013-01-08 09:45:00,
2013-01-08 04:50:00,28.4,27.4,30.41,South,179,0.0,0.0,96,0.00,,,0.00,Wunderground v.1.15,2013-01-08 09:50:00,
2013-01-08 05:00:00,29.1,28.1,30.40,South,179,0.0,0.0,96,0.00,,,0.00,Wunderground v.1.15,2013-01-08 10:00:00,
2013-01-08 05:05:00,29.8,29.1,30.40,South,179,0.0,0.0,97,0.00,,,0.00,Wunderground v.1.15,2013-01-08 10:05:00,
2013-01-08 05:10:00,30.3,29.6,30.40,SSW,206,0.0,0.0,97,0.00,,,0.00,Wunderground v.1.15,2013-01-08 10:10:00,
2013-01-08 05:15:00,30.6,29.6,30.39,NW,313,0.0,0.0,96,0.00,,,0.00,Wunderground v.1.15,2013-01-08 10:15:00,
2013-01-08 05:25:00,30.8,29.8,30.40,SSE,164,0.0,0.0,96,0.00,,,0.00,Wunderground v.1.15,2013-01-08 10:25:00,
2013-01-08 05:30:00,30.5,29.2,30.40,SSE,164,0.0,0.0,95,0.00,,,0.00,Wunderground v.1.15,2013-01-08 10:30:00,
2013-01-08 05:35:00,30.3,29.0,30.41,SSE,164,0.0,0.0,95,0.00,,,0.00,Wunderground v.1.15,2013-01-08 10:35:00,
2013-01-08 05:45:00,29.9,28.4,30.41,West,261,0.0,0.0,94,0.00,,,0.00,Wunderground v.1.15,2013-01-08 10:45:00,
2013-01-08 05:50:00,29.9,28.4,30.40,West,262,0.0,0.0,94,0.00,,,0.00,Wunderground v.1.15,2013-01-08 10:50:00,
2013-01-08 05:55:00,29.8,28.3,30.41,West,262,0.0,0.0,94,0.00,,,0.00,Wunderground v.1.15,2013-01-08 10:55:00,
2013-01-08 06:05:00,29.6,28.1,30.41,West,262,0.0,0.0,94,0.00,,,0.00,Wunderground v.1.15,2013-01-08 11:05:00,
2013-01-08 06:10:00,29.7,28.4,30.41,West,262,0.0,0.0,95,0.00,,,0.00,Wunderground v.1.15,2013-01-08 11:10:00,
2013-01-08 06:20:00,30.1,28.8,30.41,West,262,0.0,0.0,95,0.00,,,0.00,Wunderground v.1.15,2013-01-08 11:20:00,
2013-01-08 06:25:00,30.3,29.0,30.41,West,262,0.0,0.0,95,0.00,,,0.00,Wunderground v.1.15,2013-01-08 11:25:00,
2013-01-08 06:30:00,30.4,29.1,30.41,West,262,0.0,0.0,95,0.00,,,0.00,Wunderground v.1.15,2013-01-08 11:30:00,
2013-01-08 06:40:00,30.8,29.8,30.42,West,262,0.0,0.0,96,0.00,,,0.00,Wunderground v.1.15,2013-01-08 11:40:00,
2013-01-08 06:45:00,30.9,29.9,30.42,West,262,0.0,0.0,96,0.00,,,0.00,Wunderground v.1.15,2013-01-08 11:45:00,
2013-01-08 06:50:00,31.0,30.0,30.42,West,262,0.0,0.0,96,0.00,,,0.00,Wunderground v.1.15,2013-01-08 11:50:00,
2013-01-08 07:00:00,31.6,30.6,30.42,West,262,0.0,0.0,96,0.00,,,0.00,Wunderground v.1.15,2013-01-08 12:00:00,
2013-01-08 07:05:00,32.0,31.0,30.42,West,262,0.0,0.0,96,0.00,,,0.00,Wunderground v.1.15,2013-01-08 12:05:00,
2013-01-08 07:10:00,32.4,31.4,30.42,West,262,0.0,0.0,96,0.00,,,0.00,Wunderground v.1.15,2013-01-08 12:10:00,
2013-01-08 07:15:00,32.7,31.7,30.42,West,262,0.0,0.0,96,0.00,,,0.00,Wunderground v.1.15,2013-01-08 12:15:00,
2013-01-08 07:25:00,33.2,32.2,30.42,West,262,0.0,0.0,96,0.00,,,0.00,Wunderground v.1.15,2013-01-08 12:25:00,
2013-01-08 07:30:00,33.4,32.1,30.43,West,262,0.0,0.0,95,0.00,,,0.00,Wunderground v.1.15,2013-01-08 12:30:00,
2013-01-08 07:35:00,33.7,32.7,30.44,West,262,0.0,0.0,96,0.00,,,0.00,Wunderground v.1.15,2013-01-08 12:35:00,
2013-01-08 07:45:00,34.0,32.7,30.44,West,262,0.0,0.0,95,0.00,,,0.00,Wunderground v.1.15,2013-01-08 12:45:00,
2013-01-08 07:50:00,34.1,32.8,30.44,West,262,0.0,0.0,95,0.00,,,0.00,Wunderground v.1.15,2013-01-08 12:50:00,
2013-01-08 07:55:00,34.3,33.0,30.44,West,262,0.0,0.0,95,0.00,,,0.00,Wunderground v.1.15,2013-01-08 12:55:00,
2013-01-08 08:05:00,34.6,33.1,30.45,West,262,0.0,0.0,94,0.00,,,0.00,Wunderground v.1.15,2013-01-08 13:05:00,
2013-01-08 08:10:00,34.7,33.2,30.45,West,262,0.0,0.0,94,0.00,,,0.00,Wunderground v.1.15,2013-01-08 13:10:00,
2013-01-08 08:15:00,34.9,33.3,30.45,West,262,0.0,0.0,94,0.00,,,0.00,Wunderground v.1.15,2013-01-08 13:15:00,
2013-01-08 08:20:00,35.1,33.5,30.45,West,262,0.0,0.0,94,0.00,,,0.00,Wunderground v.1.15,2013-01-08 13:20:00,
2013-01-08 08:30:00,35.5,33.9,30.45,West,262,0.0,0.0,94,0.00,,,0.00,Wunderground v.1.15,2013-01-08 13:30:00,
2013-01-08 08:35:00,35.7,34.1,30.45,West,262,0.0,0.0,94,0.00,,,0.00,Wunderground v.1.15,2013-01-08 13:35:00,
2013-01-08 08:40:00,35.9,34.3,30.46,West,262,0.0,0.0,94,0.00,,,0.00,Wunderground v.1.15,2013-01-08 13:40:00,
2013-01-08 08:50:00,36.5,34.7,30.46,West,262,0.0,0.0,93,0.00,,,0.00,Wunderground v.1.15,2013-01-08 13:50:00,
2013-01-08 08:55:00,36.8,35.0,30.46,West,262,0.0,0.0,93,0.00,,,0.00,Wunderground v.1.15,2013-01-08 13:55:00,
2013-01-08 09:00:00,37.1,35.3,30.45,West,262,0.0,0.0,93,0.00,,,0.00,Wunderground v.1.15,2013-01-08 14:00:00,
2013-01-08 09:05:00,37.3,35.2,30.46,West,262,0.0,0.0,92,0.00,,,0.00,Wunderground v.1.15,2013-01-08 14:05:00,
2013-01-08 09:15:00,37.7,35.3,30.46,West,262,0.0,0.0,91,0.00,,,0.00,Wunderground v.1.15,2013-01-08 14:15:00,
2013-01-08 09:20:00,38.0,35.3,30.46,West,262,0.0,0.0,90,0.00,,,0.00,Wunderground v.1.15,2013-01-08 14:20:00,
2013-01-08 09:25:00,38.3,35.6,30.46,West,262,0.0,0.0,90,0.00,,,0.00,Wunderground v.1.15,2013-01-08 14:25:00,
2013-01-08 09:35:00,38.8,36.1,30.47,West,262,0.0,0.0,90,0.00,,,0.00,Wunderground v.1.15,2013-01-08 14:35:00,
2013-01-08 09:40:00,39.1,36.1,30.47,West,262,0.0,0.0,89,0.00,,,0.00,Wunderground v.1.15,2013-01-08 14:40:00,
2013-01-08 09:45:00,39.3,36.3,30.48,West,262,0.0,0.0,89,0.00,,,0.00,Wunderground v.1.15,2013-01-08 14:45:00,
2013-01-08 09:55:00,39.8,36.2,30.47,West,262,0.0,0.0,87,0.00,,,0.00,Wunderground v.1.15,2013-01-08 14:55:00,
2013-01-08 10:00:00,39.9,36.3,30.47,West,262,0.0,0.0,87,0.00,,,0.00,Wunderground v.1.15,2013-01-08 15:00:00,
2013-01-08 10:05:00,40.2,36.6,30.47,West,262,0.0,0.0,87,0.00,,,0.00,Wunderground v.1.15,2013-01-08 15:05:00,
2013-01-08 10:10:00,40.4,36.2,30.47,West,262,0.0,0.0,85,0.00,,,0.00,Wunderground v.1.15,2013-01-08 15:10:00,
2013-01-08 10:20:00,40.8,36.0,30.47,West,262,0.0,0.0,83,0.00,,,0.00,Wunderground v.1.15,2013-01-08 15:20:00,
2013-01-08 10:25:00,41.3,37.1,30.47,South,175,0.0,0.0,85,0.00,,,0.00,Wunderground v.1.15,2013-01-08 15:25:00,
2013-01-08 10:35:00,42.1,37.0,30.47,South,176,0.0,0.0,82,0.00,,,0.00,Wunderground v.1.15,2013-01-08 15:35:00,
2013-01-08 10:40:00,42.5,37.4,30.47,South,177,0.0,0.0,82,0.00,,,0.00,Wunderground v.1.15,2013-01-08 15:40:00,
2013-01-08 10:45:00,43.0,37.6,30.46,South,180,0.0,0.0,81,0.00,,,0.00,Wunderground v.1.15,2013-01-08 15:45:00,
2013-01-08 10:50:00,43.5,37.1,30.47,SSW,200,0.0,1.0,78,0.00,,,0.00,Wunderground v.1.15,2013-01-08 15:50:00,
2013-01-08 11:00:00,44.2,37.4,30.46,SSE,161,1.0,1.0,77,0.00,,,0.00,Wunderground v.1.15,2013-01-08 16:00:00,
2013-01-08 11:05:00,44.6,37.8,30.45,SSE,161,0.0,1.0,77,0.00,,,0.00,Wunderground v.1.15,2013-01-08 16:05:00,
2013-01-08 11:15:00,45.8,38.0,30.45,NNW,334,0.0,0.0,74,0.00,,,0.00,Wunderground v.1.15,2013-01-08 16:15:00,
2013-01-08 11:20:00,46.6,37.3,30.45,SE,143,0.0,0.0,70,0.00,,,0.00,Wunderground v.1.15,2013-01-08 16:20:00,
2013-01-08 11:25:00,46.9,36.9,30.44,SSW,200,0.0,1.0,68,0.00,,,0.00,Wunderground v.1.15,2013-01-08 16:25:00,
2013-01-08 11:30:00,47.3,37.6,30.44,SE,132,0.0,1.0,69,0.00,,,0.00,Wunderground v.1.15,2013-01-08 16:30:00,
2013-01-08 11:40:00,48.3,37.5,30.44,WSW,246,0.0,1.0,66,0.00,,,0.00,Wunderground v.1.15,2013-01-08 16:40:00,
2013-01-08 11:45:00,48.6,37.4,30.44,South,188,0.0,1.0,65,0.00,,,0.00,Wunderground v.1.15,2013-01-08 16:45:00,
2013-01-08 11:55:00,49.3,37.2,30.42,SSE,153,0.0,1.0,63,0.00,,,0.00,Wunderground v.1.15,2013-01-08 16:55:00,
2013-01-08 12:00:00,49.6,37.1,30.42,SSE,161,0.0,0.0,62,0.00,,,0.00,Wunderground v.1.15,2013-01-08 17:00:00,
2013-01-08 12:05:00,49.9,37.0,30.43,South,190,0.0,0.0,61,0.00,,,0.00,Wunderground v.1.15,2013-01-08 17:05:00,
2013-01-08 12:10:00,50.0,36.2,30.42,South,176,1.0,1.0,59,0.00,,,0.00,Wunderground v.1.15,2013-01-08 17:10:00,
2013-01-08 12:20:00,50.4,37.0,30.42,South,189,0.0,0.0,60,0.00,,,0.00,Wunderground v.1.15,2013-01-08 17:20:00,
2013-01-08 12:25:00,50.7,37.7,30.42,SSE,157,0.0,2.0,61,0.00,,,0.00,Wunderground v.1.15,2013-01-08 17:25:00,
2013-01-08 12:30:00,50.9,37.1,30.41,SSE,156,0.0,0.0,59,0.00,,,0.00,Wunderground v.1.15,2013-01-08 17:30:00,
2013-01-08 12:35:00,51.0,38.0,30.41,South,177,1.0,1.0,61,0.00,,,0.00,Wunderground v.1.15,2013-01-08 17:35:00,
2013-01-08 12:45:00,51.5,37.6,30.40,NE,46,0.0,1.0,59,0.00,,,0.00,Wunderground v.1.15,2013-01-08 17:45:00,
2013-01-08 12:50:00,51.9,38.0,30.40,SSW,193,0.0,0.0,59,0.00,,,0.00,Wunderground v.1.15,2013-01-08 17:50:00,
2013-01-08 12:55:00,52.2,38.3,30.40,SSE,153,0.0,3.0,59,0.00,,,0.00,Wunderground v.1.15,2013-01-08 17:55:00,
2013-01-08 13:05:00,52.7,38.3,30.40,WNW,286,0.0,1.0,58,0.00,,,0.00,Wunderground v.1.15,2013-01-08 18:05:00,
2013-01-08 13:10:00,52.5,38.6,30.40,West,273,0.0,1.0,59,0.00,,,0.00,Wunderground v.1.15,2013-01-08 18:10:00,
2013-01-08 13:15:00,52.5,39.4,30.40,WNW,301,1.0,1.0,61,0.00,,,0.00,Wunderground v.1.15,2013-01-08 18:15:00,
2013-01-08 13:25:00,52.8,39.7,30.40,WNW,299,1.0,1.0,61,0.00,,,0.00,Wunderground v.1.15,2013-01-08 18:25:00,
2013-01-08 13:30:00,52.9,39.4,30.40,NW,309,1.0,3.0,60,0.00,,,0.00,Wunderground v.1.15,2013-01-08 18:30:00,
2013-01-08 13:35:00,53.1,39.6,30.40,WSW,238,1.0,3.0,60,0.00,,,0.00,Wunderground v.1.15,2013-01-08 18:35:00,
2013-01-08 13:45:00,53.4,39.4,30.39,WNW,294,1.0,1.0,59,0.00,,,0.00,Wunderground v.1.15,2013-01-08 18:45:00,
2013-01-08 13:50:00,53.7,40.1,30.39,NW,312,1.0,1.0,60,0.00,,,0.00,Wunderground v.1.15,2013-01-08 18:50:00,
2013-01-08 13:55:00,54.3,41.1,30.38,SSE,153,1.0,3.0,61,0.00,,,0.00,Wunderground v.1.15,2013-01-08 18:55:00,
2013-01-08 14:00:00,54.7,41.5,30.38,WSW,255,1.0,1.0,61,0.00,,,0.00,Wunderground v.1.15,2013-01-08 19:00:00,
2013-01-08 14:10:00,55.3,41.2,30.38,SSW,209,2.0,2.0,59,0.00,,,0.00,Wunderground v.1.15,2013-01-08 19:10:00,
2013-01-08 14:15:00,55.3,41.2,30.37,SSW,198,2.0,2.0,59,0.00,,,0.00,Wunderground v.1.15,2013-01-08 19:15:00,
2013-01-08 14:20:00,55.4,41.3,30.37,SSE,167,1.0,1.0,59,0.00,,,0.00,Wunderground v.1.15,2013-01-08 19:20:00,
2013-01-08 14:30:00,55.5,41.4,30.37,South,175,2.0,2.0,59,0.00,,,0.00,Wunderground v.1.15,2013-01-08 19:30:00,
2013-01-08 14:35:00,56.0,41.9,30.37,WSW,241,1.0,2.0,59,0.00,,,0.00,Wunderground v.1.15,2013-01-08 19:35:00,
2013-01-08 14:40:00,56.4,42.2,30.37,WSW,257,1.0,1.0,59,0.00,,,0.00,Wunderground v.1.15,2013-01-08 19:40:00,
2013-01-08 14:50:00,56.3,42.1,30.37,NW,317,0.0,0.0,59,0.00,,,0.00,Wunderground v.1.15,2013-01-08 19:50:00,
2013-01-08 14:55:00,56.1,42.4,30.37,SW,227,1.0,2.0,60,0.00,,,0.00,Wunderground v.1.15,2013-01-08 19:55:00,
2013-01-08 15:00:00,55.8,41.7,30.37,WSW,246,1.0,1.0,59,0.00,,,0.00,Wunderground v.1.15,2013-01-08 20:00:00,
2013-01-08 15:10:00,56.3,42.1,30.38,WSW,240,0.0,0.0,59,0.00,,,0.00,Wunderground v.1.15,2013-01-08 20:10:00,
2013-01-08 15:15:00,56.6,42.4,30.38,WSW,257,1.0,1.0,59,0.00,,,0.00,Wunderground v.1.15,2013-01-08 20:15:00,
2013-01-08 15:20:00,56.4,41.8,30.37,SW,223,1.0,1.0,58,0.00,,,0.00,Wunderground v.1.15,2013-01-08 20:20:00,
2013-01-08 15:30:00,56.2,42.1,30.38,South,189,1.0,1.0,59,0.00,,,0.00,Wunderground v.1.15,2013-01-08 20:30:00,
2013-01-08 15:35:00,56.0,41.4,30.37,SW,234,1.0,1.0,58,0.00,,,0.00,Wunderground v.1.15,2013-01-08 20:35:00,
2013-01-08 15:40:00,55.9,41.8,30.38,SW,235,1.0,2.0,59,0.00,,,0.00,Wunderground v.1.15,2013-01-08 20:40:00,
2013-01-08 15:45:00,55.6,41.9,30.38,NW,323,0.0,2.0,60,0.00,,,0.00,Wunderground v.1.15,2013-01-08 20:45:00,
2013-01-08 15:55:00,55.7,41.6,30.38,WSW,248,1.0,2.0,59,0.00,,,0.00,Wunderground v.1.15,2013-01-08 20:55:00,
2013-01-08 16:00:00,56.0,41.9,30.38,WSW,248,1.0,1.0,59,0.00,,,0.00,Wunderground v.1.15,2013-01-08 21:00:00,
2013-01-08 16:05:00,56.6,42.0,30.38,WNW,298,0.0,3.0,58,0.00,,,0.00,Wunderground v.1.15,2013-01-08 21:05:00,
2013-01-08 16:15:00,56.3,41.7,30.37,SSW,205,1.0,1.0,58,0.00,,,0.00,Wunderground v.1.15,2013-01-08 21:15:00,
2013-01-08 16:20:00,56.4,41.8,30.38,SSW,205,0.0,0.0,58,0.00,,,0.00,Wunderground v.1.15,2013-01-08 21:20:00,
2013-01-08 16:25:00,56.5,41.9,30.37,SSW,205,0.0,0.0,58,0.00,,,0.00,Wunderground v.1.15,2013-01-08 21:25:00,
2013-01-08 16:35:00,56.3,41.7,30.38,SSW,205,0.0,0.0,58,0.00,,,0.00,Wunderground v.1.15,2013-01-08 21:35:00,
2013-01-08 16:40:00,56.1,41.5,30.38,SSW,205,0.0,0.0,58,0.00,,,0.00,Wunderground v.1.15,2013-01-08 21:40:00,
2013-01-08 16:45:00,55.7,42.0,30.38,SSW,205,0.0,0.0,60,0.00,,,0.00,Wunderground v.1.15,2013-01-08 21:45:00,
2013-01-08 16:50:00,55.2,42.4,30.38,SSW,205,0.0,0.0,62,0.00,,,0.00,Wunderground v.1.15,2013-01-08 21:50:00,
2013-01-08 17:00:00,53.7,42.6,30.39,SSW,205,0.0,0.0,66,0.00,,,0.00,Wunderground v.1.15,2013-01-08 22:00:00,
2013-01-08 17:05:00,52.8,42.1,30.39,SSW,205,0.0,0.0,67,0.00,,,0.00,Wunderground v.1.15,2013-01-08 22:05:00,
2013-01-08 17:10:00,52.0,42.1,30.39,SSW,205,0.0,0.0,69,0.00,,,0.00,Wunderground v.1.15,2013-01-08 22:10:00,
2013-01-08 17:20:00,51.2,42.5,30.39,SSW,205,0.0,0.0,72,0.00,,,0.00,Wunderground v.1.15,2013-01-08 22:20:00,
2013-01-08 17:25:00,50.7,42.4,30.39,SSW,205,0.0,0.0,73,0.00,,,0.00,Wunderground v.1.15,2013-01-08 22:25:00,
2013-01-08 17:30:00,50.5,42.5,30.39,SSW,205,0.0,0.0,74,0.00,,,0.00,Wunderground v.1.15,2013-01-08 22:30:00,
2013-01-08 17:35:00,50.3,42.3,30.38,SSW,205,0.0,0.0,74,0.00,,,0.00,Wunderground v.1.15,2013-01-08 22:35:00,
2013-01-08 17:45:00,49.9,42.6,30.39,SSW,205,0.0,0.0,76,0.00,,,0.00,Wunderground v.1.15,2013-01-08 22:45:00,
2013-01-08 17:50:00,49.8,42.5,30.38,SSW,205,0.0,0.0,76,0.00,,,0.00,Wunderground v.1.15,2013-01-08 22:50:00,
2013-01-08 18:00:00,49.4,42.5,30.38,SSW,205,0.0,0.0,77,0.00,,,0.00,Wunderground v.1.15,2013-01-08 23:00:00,
2013-01-08 18:05:00,49.2,42.6,30.38,SSW,205,0.0,0.0,78,0.00,,,0.00,Wunderground v.1.15,2013-01-08 23:05:00,
2013-01-08 18:10:00,49.1,42.2,30.38,SSW,205,0.0,0.0,77,0.00,,,0.00,Wunderground v.1.15,2013-01-08 23:10:00,
2013-01-08 18:15:00,49.1,42.5,30.38,SSW,205,0.0,0.0,78,0.00,,,0.00,Wunderground v.1.15,2013-01-08 23:15:00,
2013-01-08 18:25:00,49.0,42.8,30.39,SSW,205,0.0,0.0,79,0.00,,,0.00,Wunderground v.1.15,2013-01-08 23:25:00,
2013-01-08 18:30:00,49.0,42.8,30.39,SSW,205,0.0,0.0,79,0.00,,,0.00,Wunderground v.1.15,2013-01-08 23:30:00,
2013-01-08 18:35:00,49.0,42.8,30.40,SSW,205,0.0,0.0,79,0.00,,,0.00,Wunderground v.1.15,2013-01-08 23:35:00,
2013-01-08 18:40:00,49.0,42.8,30.39,SSW,205,0.0,0.0,79,0.00,,,0.00,Wunderground v.1.15,2013-01-08 23:40:00,
2013-01-08 18:50:00,48.9,42.7,30.39,SSW,205,0.0,0.0,79,0.00,,,0.00,Wunderground v.1.15,2013-01-08 23:50:00,
2013-01-08 18:55:00,48.8,42.9,30.39,SSW,205,0.0,0.0,80,0.00,,,0.00,Wunderground v.1.15,2013-01-08 23:55:00,
2013-01-08 19:00:00,48.8,42.9,30.39,SSW,205,0.0,0.0,80,0.00,,,0.00,Wunderground v.1.15,2013-01-09 00:00:00,
2013-01-08 19:10:00,48.5,42.3,30.39,SSW,205,0.0,0.0,79,0.00,,,0.00,Wunderground v.1.15,2013-01-09 00:10:00,
2013-01-08 19:15:00,48.3,42.4,30.40,SSW,205,0.0,0.0,80,0.00,,,0.00,Wunderground v.1.15,2013-01-09 00:15:00,
2013-01-08 19:20:00,48.0,42.1,30.39,SSW,205,0.0,0.0,80,0.00,,,0.00,Wunderground v.1.15,2013-01-09 00:20:00,
2013-01-08 19:30:00,46.9,41.4,30.40,SSW,205,0.0,0.0,81,0.00,,,0.00,Wunderground v.1.15,2013-01-09 00:30:00,
2013-01-08 19:35:00,46.4,40.9,30.40,SSW,205,0.0,0.0,81,0.00,,,0.00,Wunderground v.1.15,2013-01-09 00:35:00,
2013-01-08 19:40:00,46.0,40.5,30.39,SSW,205,0.0,0.0,81,0.00,,,0.00,Wunderground v.1.15,2013-01-09 00:40:00,
2013-01-08 19:50:00,45.3,40.1,30.39,SSW,205,0.0,0.0,82,0.00,,,0.00,Wunderground v.1.15,2013-01-09 00:50:00,
2013-01-08 19:55:00,44.8,40.0,30.40,SSW,205,0.0,0.0,83,0.00,,,0.00,Wunderground v.1.15,2013-01-09 00:55:00,
2013-01-08 20:00:00,44.5,40.0,30.40,SSW,205,0.0,0.0,84,0.00,,,0.00,Wunderground v.1.15,2013-01-09 01:00:00,
2013-01-08 20:05:00,44.2,39.7,30.39,SSW,205,0.0,0.0,84,0.00,,,0.00,Wunderground v.1.15,2013-01-09 01:05:00,
2013-01-08 20:15:00,43.5,39.3,30.39,SSW,205,0.0,0.0,85,0.00,,,0.00,Wunderground v.1.15,2013-01-09 01:15:00,
2013-01-08 20:20:00,43.3,39.4,30.39,SSW,205,0.0,0.0,86,0.00,,,0.00,Wunderground v.1.15,2013-01-09 01:20:00,
2013-01-08 20:25:00,43.0,39.1,30.39,SSW,205,0.0,0.0,86,0.00,,,0.00,Wunderground v.1.15,2013-01-09 01:25:00,
2013-01-08 20:30:00,42.8,38.9,30.39,SSW,205,0.0,0.0,86,0.00,,,0.00,Wunderground v.1.15,2013-01-09 01:30:00,
2013-01-08 20:40:00,42.3,38.7,30.40,SSW,205,0.0,0.0,87,0.00,,,0.00,Wunderground v.1.15,2013-01-09 01:40:00,
2013-01-08 20:45:00,42.2,38.9,30.40,SSW,205,0.0,0.0,88,0.00,,,0.00,Wunderground v.1.15,2013-01-09 01:45:00,
2013-01-08 20:55:00,42.3,39.0,30.40,SSW,205,0.0,0.0,88,0.00,,,0.00,Wunderground v.1.15,2013-01-09 01:55:00,
2013-01-08 21:00:00,42.3,39.3,30.40,SSW,205,0.0,0.0,89,0.00,,,0.00,Wunderground v.1.15,2013-01-09 02:00:00,
2013-01-08 21:05:00,42.2,38.9,30.40,SSW,205,0.0,0.0,88,0.00,,,0.00,Wunderground v.1.15,2013-01-09 02:05:00,
2013-01-08 21:10:00,42.2,39.2,30.40,SSW,205,0.0,0.0,89,0.00,,,0.00,Wunderground v.1.15,2013-01-09 02:10:00,
2013-01-08 21:20:00,42.1,39.1,30.40,SSW,205,0.0,0.0,89,0.00,,,0.00,Wunderground v.1.15,2013-01-09 02:20:00,
2013-01-08 21:25:00,41.9,38.9,30.40,SSW,205,0.0,0.0,89,0.00,,,0.00,Wunderground v.1.15,2013-01-09 02:25:00,
2013-01-08 21:35:00,41.5,38.5,30.40,SSW,205,0.0,0.0,89,0.00,,,0.00,Wunderground v.1.15,2013-01-09 02:35:00,
2013-01-08 21:40:00,41.4,38.4,30.40,SSW,205,0.0,0.0,89,0.00,,,0.00,Wunderground v.1.15,2013-01-09 02:40:00,
2013-01-08 21:45:00,41.1,37.8,30.39,SSW,205,0.0,0.0,88,0.00,,,0.00,Wunderground v.1.15,2013-01-09 02:45:00,
2013-01-08 21:50:00,40.9,37.9,30.39,SSW,205,0.0,0.0,89,0.00,,,0.00,Wunderground v.1.15,2013-01-09 02:50:00,
2013-01-08 22:00:00,40.4,37.4,30.40,SSW,205,0.0,0.0,89,0.00,,,0.00,Wunderground v.1.15,2013-01-09 03:00:00,
2013-01-08 22:05:00,40.2,37.5,30.39,SSW,205,0.0,0.0,90,0.00,,,0.00,Wunderground v.1.15,2013-01-09 03:05:00,
2013-01-08 22:15:00,39.7,37.0,30.40,SSW,205,0.0,0.0,90,0.00,,,0.00,Wunderground v.1.15,2013-01-09 03:15:00,
2013-01-08 22:20:00,39.5,36.8,30.39,SSW,205,0.0,0.0,90,0.00,,,0.00,Wunderground v.1.15,2013-01-09 03:20:00,
2013-01-08 22:25:00,39.3,36.9,30.39,SSW,205,0.0,0.0,91,0.00,,,0.00,Wunderground v.1.15,2013-01-09 03:25:00,
2013-01-08 22:30:00,39.2,36.8,30.40,SSW,205,0.0,0.0,91,0.00,,,0.00,Wunderground v.1.15,2013-01-09 03:30:00,
2013-01-08 22:40:00,39.5,37.9,30.40,SSW,205,0.0,0.0,94,0.00,,,0.00,Wunderground v.1.15,2013-01-09 03:40:00,
2013-01-08 22:45:00,39.9,38.3,30.41,SSW,205,0.0,0.0,94,0.00,,,0.00,Wunderground v.1.15,2013-01-09 03:45:00,
2013-01-08 22:50:00,40.1,38.2,30.41,SSW,205,0.0,0.0,93,0.00,,,0.00,Wunderground v.1.15,2013-01-09 03:50:00,
2013-01-08 22:55:00,40.5,38.9,30.41,SSW,205,0.0,0.0,94,0.00,,,0.00,Wunderground v.1.15,2013-01-09 03:55:00,
2013-01-08 23:05:00,41.0,39.4,30.41,SSW,205,0.0,0.0,94,0.00,,,0.00,Wunderground v.1.15,2013-01-09 04:05:00,
2013-01-08 23:10:00,41.4,39.5,30.41,SSW,205,0.0,0.0,93,0.00,,,0.00,Wunderground v.1.15,2013-01-09 04:10:00,
2013-01-08 23:15:00,41.6,39.7,30.41,SSW,205,0.0,0.0,93,0.00,,,0.00,Wunderground v.1.15,2013-01-09 04:15:00,
2013-01-08 23:25:00,42.0,39.8,30.41,SSW,205,0.0,0.0,92,0.00,,,0.00,Wunderground v.1.15,2013-01-09 04:25:00,
2013-01-08 23:30:00,42.3,40.1,30.41,SSW,205,0.0,0.0,92,0.00,,,0.00,Wunderground v.1.15,2013-01-09 04:30:00,
2013-01-08 23:35:00,42.4,40.2,30.41,SSW,205,0.0,0.0,92,0.00,,,0.00,Wunderground v.1.15,2013-01-09 04:35:00,
2013-01-08 23:45:00,42.6,40.4,30.40,SSW,205,0.0,0.0,92,0.00,,,0.00,Wunderground v.1.15,2013-01-09 04:45:00,
2013-01-08 23:50:00,42.7,40.5,30.40,SSW,205,0.0,0.0,92,0.00,,,0.00,Wunderground v.1.15,2013-01-09 04:50:00,
2013-01-08 23:55:00,42.8,40.6,30.40,SSW,205,0.0,0.0,92,0.00,,,0.00,Wunderground v.1.15,2013-01-09 04:55:00,